{"data":{"norad_id":62702,"intl_designator":"2025-009CX","name":"NORSAT 4","alt_names":[],"object_type":"PAYLOAD","status":"ACTIVE","operator":null,"country":"NOR","launch_date":"2025-01-14","launch_site_code":"AFWTR","launch_vehicle":null,"mission":null,"orbit_class":"UNKNOWN","rcs_meters":null,"size_class":null,"mass_kg":null,"dimensions":null,"purposes":[],"wikipedia_slug":null,"has_3d_model":false,"image_url":null,"decayed_at":null,"tle_current":{"epoch":"2026-05-25T03:42:18.423360Z","epoch_age_seconds":54931,"freshness":"FRESH","line1":"1 62702U 25009CX  26145.15437990  .00001733  00000+0  16395-3 0  9999","line2":"2 62702  97.7046 224.2640 0003154 106.3322 253.8246 14.94943725 73921","mean_motion":14.94943725,"eccentricity":0.0003154,"inclination_deg":97.7046,"raan_deg":224.264,"arg_perigee_deg":106.3322,"mean_anomaly_deg":253.8246,"bstar":0.00016395,"rev_number":7392,"period_min":96.324696101855,"perigee_km":580.35202901212,"apogee_km":584.74282874986,"semimajor_km":6960.684428881,"source":"CELESTRAK","updated_at":"2026-05-25T13:38:03.203809Z"}}}